Theta_e
341 347 346 342 344 346 347 344 346 345 344 341 337 334 326 326 327 326 338 340 341 343 342 341 339 337 336 336 336 336 335 335 334 336 335 334 337 337 336 333 331 332 333
342 348 347 344 343 343 345 345 345 344 344 340 337 339 331 326 327 328 336 341 342 343 340 339 337 336 336 334 335 333 333 330 329 334 333 333 332 334 336 334 333 333 333
344 348 348 346 344 343 343 344 345 344 344 341 333 337 335 339 341 338 340 341 342 343 341 339 337 336 335 335 335 334 334 331 331 333 333 334 334 334 336 333 331 331 331
345 348 349 346 345 343 343 343 345 344 343 342 334 334 338 343 343 342 342 341 343 341 339 337 336 334 335 335 335 332 331 331 330 330 331 332 332 337 338 334 332 331 330
349 350 349 345 345 344 342 344 345 344 343 342 336 330 337 342 343 343 341 342 340 332 328 330 331 331 331 332 332 331 330 329 330 332 330 333 333 335 334 332 332 330 329
349 350 349 345 345 343 342 343 345 344 343 342 339 328 332 340 343 342 342 341 337 329 323 321 321 325 330 330 330 330 330 329 330 330 332 332 335 337 334 334 331 331 330
348 348 348 347 344 343 342 343 343 343 344 343 341 329 329 337 342 340 341 339 333 327 325 323 320 323 329 330 330 330 330 330 329 328 330 331 334 335 334 336 332 332 330
347 348 347 347 344 343 342 342 342 344 344 343 340 330 334 332 339 339 340 338 334 330 327 322 319 321 328 329 329 329 329 331 330 330 330 332 331 332 332 334 333 331 330
340 346 346 345 343 342 343 342 342 342 342 341 340 332 339 340 336 339 339 338 336 333 329 324 320 320 324 329 329 330 330 330 329 328 328 329 329 332 331 332 331 331 330
328 335 341 345 343 341 342 343 342 342 342 342 339 334 340 340 336 338 339 339 337 336 332 326 323 320 320 324 328 329 330 330 330 329 327 329 331 332 331 331 331 330 329
315 318 326 332 340 344 342 343 342 342 342 341 341 336 340 337 339 336 338 338 338 337 334 330 325 322 319 320 328 329 329 330 330 329 329 327 331 332 330 329 328 325 323
312 314 314 319 325 330 341 344 343 341 341 341 341 338 338 338 337 338 336 338 338 337 335 333 327 323 320 319 326 329 329 329 329 329 329 328 327 332 328 324 324 323 322
311 312 312 313 314 316 324 340 343 344 342 341 341 341 338 338 337 338 336 338 338 337 335 334 332 325 321 318 321 329 329 329 329 330 329 328 324 332 330 323 321 321 322
310 310 310 311 311 312 313 317 332 342 343 343 341 341 341 338 338 339 337 337 338 337 335 333 332 327 323 320 318 327 328 328 329 330 329 329 324 327 330 323 321 321 321
309 309 310 309 309 309 311 312 313 322 334 341 341 341 341 340 338 337 340 338 337 338 336 333 332 329 324 325 321 319 327 327 327 329 330 329 328 322 323 323 323 322 322
308 308 308 308 307 308 308 309 310 311 315 329 340 341 341 341 341 338 340 339 337 338 338 335 332 329 326 324 328 325 322 324 326 328 329 329 329 326 323 323 328 329 330
306 306 306 307 307 307 307 307 308 308 310 312 319 336 340 340 341 341 340 339 339 339 339 337 334 330 327 326 328 330 327 325 326 327 328 328 328 328 327 323 323 329 331
306 306 306 307 308 308 308 308 307 307 307 308 310 314 325 339 340 340 341 341 339 339 339 338 336 332 330 330 328 330 330 327 326 326 327 327 328 328 328 326 324 323 325
307 307 309 310 310 310 310 309 308 308 308 307 307 309 312 319 338 340 339 340 340 339 339 339 337 334 332 331 331 330 330 328 326 325 325 326 327 327 327 327 328 327 324
309 310 309 310 310 310 310 310 309 308 308 308 308 307 308 311 316 337 340 339 339 339 339 338 337 335 332 332 330 330 330 329 327 326 327 326 326 326 326 326 327 328 328
307 307 309 309 309 310 310 309 309 309 310 309 308 308 307 308 311 321 336 339 339 339 338 338 337 335 334 333 329 327 328 328 327 327 327 327 326 326 326 326 327 328 328
305 306 307 308 308 309 309 310 310 310 310 310 309 308 307 307 308 311 325 334 339 339 338 337 336 334 331 330 329 325 324 326 327 327 327 327 327 327 327 327 327 328 328
304 304 305 306 306 307 308 309 309 310 309 309 309 308 308 308 308 307 310 327 333 338 338 337 336 334 331 328 328 327 324 325 323 326 327 327 327 327 327 328 328 328 328
303 304 304 305 306 307 309 310 309 309 309 309 309 309 309 308 309 308 307 310 325 332 334 337 337 336 334 330 326 327 327 325 323 323 325 326 327 327 327 327 328 328 329
304 304 305 305 306 307 309 310 310 309 309 309 309 309 309 309 308 310 310 309 312 325 331 332 336 336 335 333 328 327 325 325 325 322 324 323 326 327 327 327 327 327 329
304 305 305 306 308 309 310 311 311 310 309 309 309 309 309 309 309 308 309 311 313 321 323 329 331 334 334 333 331 328 326 326 325 325 323 322 323 326 325 326 326 327 328
Wind_Speed
4 9 11 12 13 12 10 9 11 11 10 9 11 12 14 14 13 13 14 13 13 12 15 14 14 15 16 16 17 18 17 17 16 18 18 17 16 18 18 19 20 19 17
4 6 11 12 12 11 10 9 9 10 9 7 10 12 13 14 13 11 10 11 11 16 16 15 15 15 16 17 18 19 18 18 15 16 16 16 16 14 17 19 19 18 19
2 4 12 13 12 11 9 10 7 8 7 6 9 11 12 12 9 9 8 6 13 17 16 16 16 16 17 18 19 17 17 17 16 15 16 16 15 14 15 18 17 16 17
3 3 13 14 12 10 9 11 9 7 6 4 6 9 10 10 9 11 12 15 18 17 16 16 16 17 18 18 15 15 13 9 9 11 11 13 13 12 17 16 16 16 16
1 10 11 13 12 11 10 12 11 8 8 2 4 8 9 9 10 13 16 19 14 13 13 14 15 17 18 18 15 11 10 7 11 10 12 13 14 11 13 14 15 14 14
3 10 9 11 12 10 10 12 13 11 8 6 3 8 9 9 10 13 14 14 11 11 11 12 14 17 18 18 15 12 9 9 10 9 10 10 13 13 11 13 13 13 13
5 9 10 9 10 10 10 10 11 11 10 7 4 7 9 10 9 10 12 10 10 10 10 11 12 16 18 17 15 12 10 10 10 7 7 9 9 9 9 11 12 12 11
8 8 10 9 9 9 10 11 11 10 9 7 6 7 9 9 9 8 11 11 10 9 9 9 10 15 17 16 13 10 10 11 9 6 10 11 6 8 9 10 11 10 10
9 8 9 9 9 9 10 10 11 12 11 9 8 9 11 9 11 9 11 12 10 10 9 8 9 12 16 15 12 9 12 10 8 7 10 8 6 8 8 8 7 8 8
9 8 6 8 8 9 10 11 11 11 11 10 10 11 11 12 12 11 11 12 11 10 9 8 9 10 13 15 14 10 9 10 9 7 7 10 8 8 7 7 6 6 6
7 6 4 6 4 9 10 11 12 12 12 11 11 13 12 13 14 15 14 14 13 12 11 9 10 9 11 14 15 12 11 10 10 9 6 6 8 8 7 6 6 5 4
6 6 6 4 2 1 6 13 13 14 15 14 14 14 16 15 16 16 16 15 15 13 12 10 10 10 11 14 17 15 13 9 9 12 8 6 9 8 7 6 5 4 4
7 8 9 10 9 8 7 6 13 15 16 17 17 17 18 18 17 17 17 18 18 16 16 14 13 13 12 14 17 18 15 11 9 13 10 7 9 10 9 7 6 6 5
12 13 13 13 15 15 13 11 9 11 16 19 21 21 21 21 21 22 22 22 21 21 20 19 17 15 14 14 16 19 17 14 12 15 13 9 10 11 10 9 8 7 6
15 16 16 17 16 16 17 17 15 13 14 20 20 24 25 25 26 25 25 25 25 24 23 22 21 18 17 16 16 20 18 16 14 17 16 12 10 12 11 11 10 9 8
18 19 19 19 18 18 18 19 21 19 17 15 20 24 27 29 28 30 29 29 28 28 26 25 24 22 21 20 19 18 20 18 15 17 19 15 13 13 14 13 12 12 11
24 21 17 17 16 17 20 20 21 22 23 22 20 20 26 30 32 31 32 33 33 31 29 27 26 24 23 23 24 22 20 20 19 19 20 18 16 16 15 17 16 14 13
27 24 19 17 17 19 21 23 24 25 25 26 26 24 22 28 32 36 35 35 35 35 31 31 29 28 26 25 27 26 24 24 23 22 21 21 20 19 18 18 18 18 16
16 15 15 16 17 18 20 23 24 25 27 28 28 29 28 26 30 34 37 37 36 35 33 33 32 31 30 29 29 27 26 25 26 25 25 24 23 23 22 20 19 18 18
11 10 13 16 18 20 22 23 25 27 30 31 32 31 30 30 28 30 33 37 38 37 33 33 33 34 33 32 31 29 31 27 26 29 27 27 27 27 25 24 22 21 20
18 18 17 17 19 21 25 27 28 30 31 32 34 33 34 32 31 28 30 33 35 35 37 36 33 31 35 34 29 26 28 29 28 29 30 30 31 31 29 28 26 25 23
25 25 23 23 23 24 24 27 30 31 32 31 30 32 33 32 34 32 29 30 31 34 33 32 31 28 26 32 21 6 3 14 29 33 32 33 34 32 32 33 31 29 26
26 27 25 29 30 29 29 30 32 31 34 32 31 32 33 30 32 36 34 30 32 29 34 32 31 32 24 28 33 14 2 5 3 25 39 38 37 36 36 34 33 32 31
26 29 31 32 29 27 26 26 29 29 26 28 30 33 33 31 30 31 35 35 32 32 31 33 36 32 31 22 24 32 23 8 4 2 18 32 41 40 40 38 37 36 34
28 28 31 30 29 28 28 28 30 29 30 30 32 32 31 31 31 27 30 33 35 32 31 33 28 34 34 31 25 24 25 22 12 4 3 6 29 38 43 43 40 39 37
26 25 27 26 25 23 25 28 31 32 30 27 31 32 32 32 32 33 28 30 34 33 34 32 33 32 32 32 29 29 24 20 22 12 4 5 8 20 34 39 40 41 39
Wind_Direction
32 179 176 169 156 155 150 129 128 120 107 93 97 101 111 113 110 111 111 109 111 119 108 105 100 96 94 94 97 98 95 93 91 91 96 92 81 78 78 75 73 75 69
359 183 183 180 168 162 155 141 136 129 122 97 106 109 112 112 113 113 112 114 111 123 116 110 103 102 102 99 99 96 92 89 88 96 91 84 87 86 83 82 78 75 71
253 236 193 185 182 173 168 155 142 135 133 102 112 118 118 114 113 124 123 131 137 125 118 114 111 109 107 107 106 99 94 88 85 91 92 87 82 89 94 82 76 76 75
269 193 182 184 180 180 177 163 155 134 132 94 116 126 125 112 102 125 123 121 129 123 121 118 117 117 116 114 111 108 100 86 102 95 94 91 93 84 100 88 83 80 78
213 170 183 182 182 181 176 169 162 153 149 149 117 136 136 119 122 125 128 134 132 125 123 120 121 126 125 124 121 111 112 104 119 106 97 104 107 95 87 88 89 84 81
135 169 176 180 184 184 179 176 174 164 168 195 143 146 149 133 135 135 137 140 135 131 128 125 126 133 135 132 127 120 110 121 126 113 116 103 97 96 91 100 93 89 85
105 172 171 181 184 182 180 181 178 180 184 192 176 160 160 155 145 148 150 147 142 140 135 134 130 139 145 142 137 128 132 138 134 122 123 116 100 93 93 94 91 87 87
89 137 167 170 186 190 188 184 183 190 196 202 197 182 175 173 161 171 165 162 155 150 146 143 140 147 153 152 148 136 137 145 146 134 132 115 119 98 103 93 93 91 89
74 114 159 179 189 199 203 197 195 198 206 210 208 193 183 179 176 196 183 178 171 164 160 157 153 153 161 164 158 141 145 157 150 137 143 132 131 128 126 124 106 108 106
55 71 100 175 193 203 210 214 214 212 212 212 209 199 199 204 190 197 195 191 187 179 175 171 169 165 168 174 169 155 162 166 161 151 152 164 162 144 137 134 125 121 117
24 32 52 98 180 219 223 227 229 227 225 221 215 208 207 205 200 201 201 200 202 199 192 189 186 181 178 179 179 171 171 173 187 186 175 168 169 163 167 165 155 151 151
332 328 333 325 309 303 231 230 233 234 232 228 224 218 215 212 210 210 209 204 208 216 212 204 199 193 190 187 187 186 187 192 201 199 201 200 195 183 186 188 186 183 183
298 286 292 300 300 297 281 262 233 233 238 236 231 226 224 221 218 214 212 210 206 215 216 214 209 208 203 199 195 193 198 212 215 204 209 221 211 197 200 206 208 207 211
282 279 281 284 288 288 286 281 265 252 240 242 238 232 227 225 222 218 216 215 214 211 217 218 219 216 213 211 205 205 211 216 219 216 215 235 231 218 213 220 222 225 229
279 283 279 281 282 284 279 277 277 268 261 256 247 240 234 230 226 225 223 221 219 215 218 220 223 223 220 214 210 212 216 227 232 225 220 236 244 235 233 231 231 234 238
274 273 280 281 284 281 277 277 276 275 270 265 257 252 242 236 233 228 228 226 224 220 222 224 225 225 226 223 219 216 221 231 238 232 224 236 243 247 243 245 239 238 239
278 275 270 278 286 285 284 281 278 276 272 269 264 263 256 246 239 234 231 231 229 225 226 227 228 229 233 231 230 230 231 229 241 232 227 239 242 245 248 248 248 244 243
283 271 269 270 277 284 284 285 283 277 273 268 265 265 266 256 248 243 236 233 232 229 228 229 229 226 228 230 232 233 238 236 241 235 233 238 242 246 252 252 252 252 250
284 264 259 272 281 289 292 287 281 278 273 272 268 263 262 265 260 249 243 239 234 234 232 232 230 229 228 230 232 236 239 239 237 232 241 240 244 249 254 255 255 258 255
1 319 290 283 285 289 286 285 283 277 274 271 269 265 261 261 265 256 242 244 242 237 231 228 227 229 231 234 234 239 236 239 240 235 240 245 247 248 252 254 253 254 255
332 324 313 300 289 287 285 282 275 276 281 275 269 268 264 260 260 264 250 241 239 231 232 228 223 224 230 232 231 233 236 238 239 240 241 241 243 246 248 251 252 255 259
322 316 305 293 287 284 283 281 277 276 278 278 276 270 267 262 257 258 260 249 235 233 232 229 220 220 228 225 212 200 224 246 243 239 241 241 241 243 247 249 249 251 257
318 316 308 298 292 285 280 279 277 277 267 264 263 264 264 263 258 254 255 256 250 238 228 227 224 221 222 222 216 198 160 223 209 234 237 241 241 242 245 247 248 250 256
305 304 303 298 291 287 280 273 273 261 258 256 258 270 268 262 264 260 255 255 256 248 244 231 230 225 223 222 223 221 216 172 190 280 235 237 240 242 244 246 248 252 253
301 299 302 301 292 290 285 272 267 258 256 258 257 261 264 264 260 264 258 254 254 252 248 245 235 227 226 227 215 220 235 218 215 171 246 247 236 242 244 246 250 251 251
308 306 304 298 293 282 278 274 265 253 251 248 251 252 258 264 264 258 263 255 253 253 252 252 249 241 231 230 225 220 213 218 221 221 219 232 226 244 246 249 249 249 250